Latest Weather Observations for Collie East

IDW60801

Issued at 9:35 pm WST Tuesday 2 September 2014 (issued every 30 minutes, with the page automatically refreshed every 10 minutes)

About weather observations | Map of weather stations | Latest weather observations for WA | Other Formats
Station Details ID: 009994 Name: COLLIE EAST Lat: -33.36 Lon: 116.17 Height: 200.0 m
Data from the previous 72 hours. | See also: Recent months at Collie East
Date/Time
WST
Temp
°C
App
Temp
°C
Dew
Point
Rel
Hum
%
Delta-T
°C
Wind Press
QNH
hPa
Press
MSL
hPa
Rain
since 9 am
mm
Dir
 
Spd
km/h
Gust
km/h
Spd
kts
Gust
kts
02/09:30pm 12.6 12.8 10.5 87 1.1 CALM 0 0 0 0 - - 0.0
02/09:00pm 13.2 13.4 10.6 84 1.4 CALM 0 0 0 0 - - 0.0
02/08:30pm 14.3 14.2 10.9 80 1.8 W 2 6 1 3 - - 0.0
02/08:00pm 14.3 14.7 11.1 81 1.7 CALM 0 6 0 3 - - 0.0
02/07:30pm 14.0 13.3 10.2 78 2.0 WSW 4 6 2 3 - - 0.0
02/07:00pm 15.3 14.8 10.7 74 2.5 NNW 4 7 2 4 - - 0.0
02/06:30pm 15.9 15.6 10.2 69 3.0 W 2 7 1 4 - - 0.0
02/06:00pm 16.2 15.1 10.1 67 3.2 WSW 6 11 3 6 - - 0.0
02/05:30pm 16.7 15.1 8.7 59 4.1 WSW 7 15 4 8 - - 0.0
02/05:00pm 17.6 15.2 6.8 49 5.4 W 9 19 5 10 - - 0.0
02/04:30pm 18.5 15.4 5.4 42 6.4 WSW 11 19 6 10 - - 0.0
02/04:00pm 19.4 16.3 7.2 45 6.2 WSW 13 22 7 12 - - 0.0
02/03:30pm 19.9 17.0 8.3 47 6.1 WSW 13 20 7 11 - - 0.0
02/03:00pm 20.2 18.2 10.0 52 5.5 W 11 19 6 10 - - 0.0
02/02:30pm 19.5 17.5 10.0 54 5.1 W 11 19 6 10 - - 0.0
02/02:00pm 19.9 18.0 8.9 49 5.8 W 9 17 5 9 - - 0.0
02/01:30pm 20.6 19.0 10.1 51 5.7 W 9 15 5 8 - - 0.0
02/01:00pm 20.3 19.1 9.5 50 5.8 WSW 6 15 3 8 - - 0.0
02/12:30pm 20.2 18.7 9.2 49 5.9 WNW 7 13 4 7 - - 0.0
02/12:00pm 18.9 17.2 9.7 55 4.9 NNW 9 17 5 9 - - 0.0
02/11:30am 18.1 16.8 10.0 59 4.3 N 7 13 4 7 - - 0.0
02/11:00am 16.7 15.2 9.1 61 4.0 N 7 11 4 6 - - 0.0
02/10:30am 16.1 14.7 8.8 62 3.8 N 6 13 3 7 - - 0.0
02/10:00am 14.8 13.2 8.1 64 3.4 NNE 6 11 3 6 - - 0.0
02/09:30am 13.7 13.2 9.4 75 2.2 ESE 2 6 1 3 - - 0.0
02/09:00am 12.1 11.6 8.0 76 2.0 CALM 0 0 0 0 - - 0.0
02/08:30am 10.4 9.8 7.3 81 1.5 CALM 0 0 0 0 - - 0.0
02/08:00am 9.3 8.6 7.1 86 1.0 CALM 0 0 0 0 - - 0.0
02/07:30am 9.0 8.3 7.0 87 0.9 CALM 0 0 0 0 - - 0.0
02/07:00am 8.4 7.6 6.4 87 0.9 CALM 0 0 0 0 - - 0.0
02/06:30am 8.5 7.6 6.0 84 1.2 CALM 0 0 0 0 - - 0.0
02/06:00am 8.5 6.9 6.3 86 1.0 SE 4 6 2 3 - - 0.0
02/05:30am 8.6 7.7 6.2 85 1.1 CALM 0 0 0 0 - - 0.0
02/05:00am 8.6 7.6 5.5 81 1.4 CALM 0 0 0 0 - - 0.0
02/04:30am 8.7 7.3 5.4 80 1.5 SE 2 7 1 4 - - 0.0
02/04:00am 8.6 6.9 5.7 82 1.3 S 4 7 2 4 - - 0.0
02/03:30am 8.4 7.5 6.0 85 1.1 CALM 0 0 0 0 - - 0.0
02/03:00am 8.5 7.5 5.8 83 1.2 CALM 0 0 0 0 - - 0.0
02/02:30am 8.8 7.9 6.1 83 1.3 CALM 0 0 0 0 - - 0.0
02/02:00am 8.6 7.3 5.9 83 1.2 S 2 6 1 3 - - 0.0
02/01:30am 8.4 7.1 6.0 85 1.1 SSW 2 6 1 3 - - 0.0
02/01:00am 8.2 7.3 6.2 87 0.9 CALM 0 0 0 0 - - 0.0
02/12:30am 8.1 7.2 6.1 87 0.9 CALM 0 0 0 0 - - 0.0
02/12:00am 8.0 7.0 5.8 86 1.0 CALM 0 0 0 0 - - 0.0
 
Date/Time
WST
Temp
°C
App
Temp
°C
Dew
Point
Rel
Hum
%
Delta-T
°C
Wind Press
QNH
hPa
Press
MSL
hPa
Rain
since 9 am
mm
Dir
 
Spd
km/h
Gust
km/h
Spd
kts
Gust
kts
01/11:30pm 8.2 6.1 5.8 85 1.1 ENE 6 9 3 5 - - 0.0
01/11:00pm 7.8 6.9 5.9 88 0.9 CALM 0 0 0 0 - - 0.0
01/10:30pm 7.6 6.7 5.9 89 0.8 CALM 0 0 0 0 - - 0.0
01/10:00pm 7.7 6.8 6.0 89 0.8 CALM 0 0 0 0 - - 0.0
01/09:30pm 7.6 6.6 5.6 87 0.9 CALM 0 0 0 0 - - 0.0
01/09:00pm 8.0 7.1 6.0 87 0.9 CALM 0 0 0 0 - - 0.0
01/08:30pm 8.2 7.3 6.2 87 0.9 CALM 0 0 0 0 - - 0.0
01/08:00pm 8.6 7.7 5.9 83 1.2 CALM 0 0 0 0 - - 0.0
01/07:30pm 9.8 9.0 6.5 80 1.6 CALM 0 0 0 0 - - 0.0
01/07:00pm 10.5 9.7 6.3 75 2.0 CALM 0 0 0 0 - - 0.0
01/06:30pm 10.9 9.9 5.4 69 2.6 CALM 0 0 0 0 - - 0.0
01/06:00pm 12.2 10.3 5.1 62 3.3 E 4 7 2 4 - - 0.0
01/05:30pm 14.0 11.4 3.2 48 4.9 ENE 6 9 3 5 - - 0.0
01/05:00pm 15.5 11.9 3.0 43 5.7 ENE 11 17 6 9 - - 0.0
01/04:30pm 15.8 12.6 2.9 42 5.9 N 9 17 5 9 - - 0.0
01/04:00pm 16.4 12.6 1.7 37 6.6 NE 11 17 6 9 - - 0.0
01/03:30pm 16.6 13.1 3.3 41 6.2 N 11 15 6 8 - - 0.0
01/03:00pm 16.7 14.1 4.1 43 6.0 ENE 7 15 4 8 - - 0.0
01/02:30pm 16.6 12.9 2.6 39 6.4 NNE 11 22 6 12 - - 0.0
01/02:00pm 15.8 12.0 1.9 39 6.2 NNE 11 17 6 9 - - 0.0
01/01:30pm 15.7 13.0 3.5 44 5.6 E 7 13 4 7 - - 0.0
01/01:00pm 16.2 13.5 3.9 44 5.8 NE 7 17 4 9 - - 0.0
01/12:30pm 15.1 12.6 4.5 49 5.0 NE 7 15 4 8 - - 0.0
01/12:00pm 14.5 11.3 5.0 53 4.5 NNE 11 17 6 9 - - 0.0
01/11:30am 14.4 10.8 5.2 54 4.4 NE 13 20 7 11 - - 0.0
01/11:00am 13.6 10.4 5.3 57 3.9 NE 11 19 6 10 - - 0.0
01/10:30am 12.9 9.4 5.3 60 3.6 NE 13 24 7 13 - - 0.0
01/10:00am 12.1 7.9 5.5 64 3.1 NE 17 24 9 13 - - 0.0
01/09:30am 10.8 7.9 6.4 74 2.1 ENE 11 17 6 9 - - 0.0
01/09:00am 8.3 7.5 6.6 89 0.8 CALM 0 0 0 0 - - 0.0
01/08:30am 5.8 4.7 4.9 94 0.4 CALM 0 0 0 0 - - 0.0
01/08:00am 4.2 2.8 3.3 94 0.4 CALM 0 0 0 0 - - 0.0
01/07:30am 2.1 0.3 1.2 94 0.3 CALM 0 0 0 0 - - 0.0
01/07:00am 0.6 -1.4 -0.4 93 0.4 CALM 0 0 0 0 - - 0.0
01/06:30am 0.5 -1.6 -0.5 93 0.4 CALM 0 0 0 0 - - 0.0
01/06:00am 0.5 -1.6 -0.5 93 0.4 CALM 0 0 0 0 - - 0.0
01/05:30am 1.2 -0.7 0.3 94 0.3 CALM 0 0 0 0 - - 0.0
01/05:00am 1.6 -0.3 0.7 94 0.3 CALM 0 0 0 0 - - 0.0
01/04:30am 2.1 0.3 1.2 94 0.3 CALM 0 0 0 0 - - 0.0
01/04:00am 2.5 0.8 1.6 94 0.4 CALM 0 0 0 0 - - 0.0
01/03:30am 2.5 0.8 1.6 94 0.4 CALM 0 0 0 0 - - 0.0
01/03:00am 2.3 0.5 1.3 93 0.4 CALM 0 0 0 0 - - 0.0
01/02:30am 2.6 0.9 1.6 93 0.4 CALM 0 0 0 0 - - 0.0
01/02:00am 2.8 1.1 1.8 93 0.4 CALM 0 0 0 0 - - 0.0
01/01:30am 3.0 1.3 2.0 93 0.4 CALM 0 0 0 0 - - 0.0
01/01:00am 3.7 2.1 2.7 93 0.4 CALM 0 0 0 0 - - 0.0
01/12:30am 3.9 2.4 2.9 93 0.4 CALM 0 0 0 0 - - 0.0
01/12:00am 4.2 2.7 3.2 93 0.4 CALM 0 0 0 0 - - 0.0
 
Date/Time
WST
Temp
°C
App
Temp
°C
Dew
Point
Rel
Hum
%
Delta-T
°C
Wind Press
QNH
hPa
Press
MSL
hPa
Rain
since 9 am
mm
Dir
 
Spd
km/h
Gust
km/h
Spd
kts
Gust
kts
31/11:30pm 4.9 3.6 3.9 93 0.4 CALM 0 0 0 0 - - 0.0
31/11:00pm 4.7 3.3 3.5 92 0.5 CALM 0 0 0 0 - - 0.0
31/10:30pm 5.6 4.4 4.4 92 0.5 CALM 0 0 0 0 - - 0.0
31/10:00pm 5.8 4.6 4.4 91 0.6 CALM 0 0 0 0 - - 0.0
31/09:30pm 6.4 5.3 5.0 91 0.6 CALM 0 0 0 0 - - 0.0
31/09:00pm 7.0 6.0 5.5 90 0.7 CALM 0 0 0 0 - - 0.0
31/08:30pm 7.3 6.3 5.6 89 0.8 CALM 0 0 0 0 - - 0.0
31/08:00pm 8.0 7.1 6.1 88 0.9 CALM 0 0 0 0 - - 0.0
31/07:30pm 8.4 7.5 6.0 85 1.1 CALM 0 0 0 0 - - 0.0
31/07:00pm 9.1 8.3 6.5 84 1.2 CALM 0 0 0 0 - - 0.0
31/06:30pm 10.3 9.5 6.3 76 1.9 CALM 0 0 0 0 - - 0.0
31/06:00pm 11.2 9.4 5.5 68 2.7 SW 4 6 2 3 - - 0.0
31/05:30pm 12.6 10.2 5.1 60 3.5 WSW 7 9 4 5 - - 0.0
31/05:00pm 13.5 11.2 5.7 59 3.7 WSW 7 13 4 7 - - 0.0
31/04:30pm 14.2 11.9 5.8 57 4.0 SSW 7 17 4 9 - - 0.0
31/04:00pm 13.9 11.6 5.5 57 4.0 SSW 7 13 4 7 - - 0.0
31/03:30pm 15.4 12.7 5.6 52 4.7 S 9 20 5 11 - - 0.0
31/03:00pm 17.1 13.8 4.4 43 6.1 W 11 19 6 10 - - 0.0
31/02:30pm 15.9 12.6 2.7 41 6.0 W 9 15 5 8 - - 0.0
31/02:00pm 16.1 13.2 2.5 40 6.2 SW 7 13 4 7 - - 0.0
31/01:30pm 16.0 12.4 3.1 42 5.9 SW 11 19 6 10 - - 0.0
31/01:00pm 15.9 13.4 4.9 48 5.2 SSW 7 11 4 6 - - 0.0
31/12:30pm 15.3 12.9 4.4 48 5.1 S 6 15 3 8 - - 0.0
31/12:00pm 14.7 11.6 3.5 47 5.1 WSW 9 15 5 8 - - 0.0
31/11:30am 14.8 11.4 4.2 49 4.9 SSE 11 19 6 10 - - 0.0
31/11:00am 14.5 11.7 5.0 53 4.5 SSW 9 15 5 8 - - 0.0
31/10:30am 13.8 11.3 4.9 55 4.2 SSE 7 19 4 10 - - 0.0
31/10:00am 13.4 11.7 7.4 67 3.0 S 6 11 3 6 - - 0.0
31/09:30am 12.7 10.6 6.5 66 3.0 SE 7 15 4 8 - - 0.0
31/09:00am 11.8 11.1 8.5 80 1.6 NE 2 7 1 4 - - 0.4
31/08:30am 9.8 9.6 8.9 94 0.4 CALM 0 0 0 0 - - 0.4
31/08:00am 8.4 7.8 7.5 94 0.4 CALM 0 0 0 0 - - 0.4
31/07:30am 7.2 6.4 6.3 94 0.4 CALM 0 0 0 0 - - 0.2
31/07:00am 6.5 5.5 5.5 93 0.4 CALM 0 0 0 0 - - 0.2
31/06:30am 6.8 5.8 5.7 93 0.5 CALM 0 0 0 0 - - 0.2
31/06:00am 7.5 6.7 6.4 93 0.5 CALM 0 0 0 0 - - 0.2
31/05:30am 8.1 7.4 6.9 92 0.6 CALM 0 0 0 0 - - 0.2
31/05:00am 8.9 8.0 7.8 93 0.5 E 2 9 1 5 - - 0.2
31/04:30am 9.4 8.6 8.3 93 0.5 W 2 9 1 5 - - 0.2
31/04:00am 9.4 9.0 8.3 93 0.5 CALM 0 0 0 0 - - 0.2
31/03:30am 9.5 9.1 8.4 93 0.5 CALM 0 0 0 0 - - 0.2
31/03:00am 9.6 9.3 8.5 93 0.5 CALM 0 0 0 0 - - 0.2
31/02:30am 9.7 9.0 8.6 93 0.5 NW 2 6 1 3 - - 0.2
31/02:00am 9.8 8.8 8.7 93 0.5 NW 4 9 2 5 - - 0.2
31/01:30am 9.8 9.5 8.7 93 0.5 CALM 0 0 0 0 - - 0.2
31/01:00am 9.7 9.4 8.6 93 0.5 CALM 0 0 0 0 - - 0.2
31/12:30am 9.6 9.3 8.5 93 0.5 CALM 0 0 0 0 - - 0.2
31/12:00am 9.5 9.1 8.4 93 0.5 CALM 0 0 0 0 - - 0.2
 
Date/Time
WST
Temp
°C
App
Temp
°C
Dew
Point
Rel
Hum
%
Delta-T
°C
Wind Press
QNH
hPa
Press
MSL
hPa
Rain
since 9 am
mm
Dir
 
Spd
km/h
Gust
km/h
Spd
kts
Gust
kts
30/11:30pm 9.2 8.8 8.1 93 0.5 CALM 0 0 0 0 - - 0.2
30/11:00pm 9.2 8.8 8.1 93 0.5 CALM 0 0 0 0 - - 0.2
30/10:30pm 9.2 8.8 8.1 93 0.5 CALM 0 0 0 0 - - 0.2
30/10:00pm 9.2 8.7 8.0 92 0.6 CALM 0 0 0 0 - - 0.2

Other Formats:

Comma delimited format used in spreadsheet applications
http://www.bom.gov.au/fwo/IDW60801/IDW60801.95621.axf

JavaScript Object Notation format (JSON) in row-major order
http://www.bom.gov.au/fwo/IDW60801/IDW60801.95621.json